Station Historical Data
Daily Summary for January 13, 2017 Units:  Metric    English   Both
« Previous Day
Next Day »
Daily Weekly Monthly Yearly Custom
  High: Low: Average:
Temperature: 0.7 °C -5.4 °C -2.7 °C
Dew Point: -1.7 °C -11.3 °C -8.1 °C
Humidity: 84% 50% 67%
Wind Speed: 24.1km/h 0km/h 8km/h
Wind Gust: 32.2km/h - -
Wind- - WSW
Pressure: 1042.5 hPa 1024.6 hPa -
Precipitation: 0 mm    
Historical Graphs
 
 
Tabular Data for January 13, 2017
Time Temperature Dew Point Pressure Wind Wind Speed Wind Gust Humidity Rainfall Rate (Hourly)
00:04 0.7 °C -1.7 °C 1024.6 hPa SW 12.9 km/h 27.4 km/h 84% 0 mm
00:09 0.7 °C -1.7 °C 1024.6 hPa WSW 11.3 km/h 20.9 km/h 84% 0 mm
00:14 0.7 °C -1.7 °C 1024.9 hPa WSW 11.3 km/h 20.9 km/h 84% 0 mm
00:19 0.7 °C -1.9 °C 1024.6 hPa WSW 12.9 km/h 22.5 km/h 83% 0 mm
00:24 0.6 °C -2.1 °C 1024.6 hPa WNW 17.7 km/h 29 km/h 82% 0 mm
00:29 0.6 °C -2.1 °C 1024.9 hPa WSW 12.9 km/h 29 km/h 82% 0 mm
00:34 0.6 °C -2.3 °C 1024.9 hPa WSW 12.9 km/h 29 km/h 81% 0 mm
00:39 0.6 °C -2.2 °C 1024.9 hPa WSW 12.9 km/h 29 km/h 82% 0 mm
00:44 0.6 °C -2.2 °C 1024.9 hPa WSW 11.3 km/h 29 km/h 82% 0 mm
00:49 0.4 °C -2.3 °C 1024.9 hPa WSW 11.3 km/h 22.5 km/h 82% 0 mm
00:54 0.3 °C -2.4 °C 1025.3 hPa WNW 14.5 km/h 25.7 km/h 82% 0 mm
00:59 0.2 °C -2.7 °C 1025.3 hPa West 11.3 km/h 30.6 km/h 81% 0 mm
01:09 0 °C -3.1 °C 1026 hPa West 11.3 km/h 32.2 km/h 80% 0 mm
01:14 -0.2 °C -3.2 °C 1025.6 hPa West 11.3 km/h 25.7 km/h 80% 0 mm
01:19 -0.3 °C -3.2 °C 1026 hPa West 9.7 km/h 25.7 km/h 81% 0 mm
01:24 -0.4 °C -3.3 °C 1025.6 hPa West 11.3 km/h 20.9 km/h 81% 0 mm
01:29 -0.4 °C -3.3 °C 1026 hPa West 19.3 km/h 24.1 km/h 81% 0 mm
01:34 -0.6 °C -3.3 °C 1026 hPa West 9.7 km/h 24.1 km/h 82% 0 mm
01:39 -0.6 °C -3.3 °C 1026 hPa SSW 6.4 km/h 19.3 km/h 82% 0 mm
01:44 -0.7 °C -3.3 °C 1026.3 hPa West 9.7 km/h 22.5 km/h 82% 0 mm
01:49 -0.7 °C -3.3 °C 1026.6 hPa WSW 16.1 km/h 17.7 km/h 82% 0 mm
01:54 -0.7 °C -3.3 °C 1026.6 hPa WSW 11.3 km/h 19.3 km/h 83% 0 mm
01:59 -0.7 °C -3.4 °C 1027 hPa WSW 14.5 km/h 17.7 km/h 82% 0 mm
02:04 -0.8 °C -3.4 °C 1027 hPa WSW 11.3 km/h 24.1 km/h 82% 0 mm
02:09 -0.8 °C -3.5 °C 1027 hPa WSW 11.3 km/h 24.1 km/h 82% 0 mm
02:14 -0.8 °C -3.5 °C 1027.3 hPa WSW 11.3 km/h 25.7 km/h 82% 0 mm
02:19 -0.9 °C -3.6 °C 1027.7 hPa West 11.3 km/h 25.7 km/h 82% 0 mm
02:24 -1.1 °C -3.7 °C 1028 hPa WSW 9.7 km/h 20.9 km/h 82% 0 mm
02:29 -1.1 °C -3.9 °C 1028.3 hPa WSW 24.1 km/h 29 km/h 81% 0 mm
02:34 -1.2 °C -4.2 °C 1028 hPa West 14.5 km/h 25.7 km/h 80% 0 mm
02:39 -1.2 °C -4.3 °C 1028.3 hPa West 11.3 km/h 25.7 km/h 79% 0 mm
02:44 -1.2 °C -4.3 °C 1028.3 hPa WSW 9.7 km/h 20.9 km/h 79% 0 mm
02:49 -1.2 °C -4.6 °C 1028.7 hPa WSW 6.4 km/h 22.5 km/h 78% 0 mm
02:54 -1.2 °C -4.7 °C 1028.7 hPa NW 9.7 km/h 30.6 km/h 77% 0 mm
02:59 -1.3 °C -4.6 °C 1028.7 hPa WSW 9.7 km/h 16.1 km/h 78% 0 mm
03:04 -1.3 °C -4.7 °C 1029 hPa West 11.3 km/h 24.1 km/h 78% 0 mm
03:09 -1.4 °C -4.9 °C 1029 hPa West 11.3 km/h 24.1 km/h 77% 0 mm
03:14 -1.4 °C -5.1 °C 1029 hPa West 11.3 km/h 24.1 km/h 76% 0 mm
03:19 -1.4 °C -5.2 °C 1029.3 hPa West 12.9 km/h 32.2 km/h 75% 0 mm
03:24 -1.4 °C -5.2 °C 1029.3 hPa WSW 12.9 km/h 32.2 km/h 75% 0 mm
03:29 -1.4 °C -5.2 °C 1029.3 hPa WSW 12.9 km/h 27.4 km/h 75% 0 mm
03:34 -1.4 °C -5.2 °C 1029.7 hPa West 12.9 km/h 27.4 km/h 75% 0 mm
03:39 -1.4 °C -5.5 °C 1029.7 hPa WNW 17.7 km/h 25.7 km/h 74% 0 mm
03:44 -1.4 °C -5.5 °C 1030 hPa SW 12.9 km/h 30.6 km/h 74% 0 mm
03:49 -1.5 °C -5.6 °C 1030 hPa WSW 12.9 km/h 22.5 km/h 74% 0 mm
03:54 -1.4 °C -5.5 °C 1030 hPa West 16.1 km/h 22.5 km/h 74% 0 mm
03:59 -1.4 °C -5.5 °C 1030 hPa WNW 9.7 km/h 19.3 km/h 74% 0 mm
04:04 -1.5 °C -5.3 °C 1030.4 hPa WNW 6.4 km/h 16.1 km/h 75% 0 mm
04:09 -1.4 °C -5.3 °C 1030.7 hPa WSW 6.4 km/h 16.1 km/h 75% 0 mm
04:14 -1.5 °C -5.6 °C 1030.7 hPa West 8 km/h 16.1 km/h 74% 0 mm
04:19 -1.4 °C -5.5 °C 1030.7 hPa West 9.7 km/h 17.7 km/h 74% 0 mm
04:24 -1.4 °C -5.5 °C 1030.7 hPa WSW 11.3 km/h 22.5 km/h 74% 0 mm
04:29 -1.4 °C -5.3 °C 1031 hPa WSW 9.7 km/h 22.5 km/h 75% 0 mm
04:34 -1.4 °C -5.3 °C 1031 hPa WSW 8 km/h 19.3 km/h 75% 0 mm
04:39 -1.5 °C -5.3 °C 1031 hPa West 8 km/h 20.9 km/h 75% 0 mm
04:44 -1.5 °C -5.3 °C 1031 hPa Calm   16.1 km/h 75% 0 mm
04:49 -1.4 °C -5.3 °C 1031 hPa NW 9.7 km/h 16.1 km/h 75% 0 mm
04:54 -1.5 °C -5.3 °C 1031 hPa WSW 3.2 km/h 19.3 km/h 75% 0 mm
04:59 -1.5 °C -5.3 °C 1031.4 hPa West 9.7 km/h 19.3 km/h 75% 0 mm
05:04 -1.5 °C -5.3 °C 1031.4 hPa West 6.4 km/h 17.7 km/h 75% 0 mm
05:09 -1.5 °C -5.2 °C 1031.7 hPa WNW 16.1 km/h 19.3 km/h 76% 0 mm
05:14 -1.6 °C -6.2 °C 1031.7 hPa West 17.7 km/h 25.7 km/h 71% 0 mm
05:19 -1.8 °C -6.6 °C 1032.1 hPa WNW 14.5 km/h 25.7 km/h 70% 0 mm
05:24 -1.9 °C -6.6 °C 1032.1 hPa WNW 11.3 km/h 24.1 km/h 70% 0 mm
05:29 -1.9 °C -6.7 °C 1032.4 hPa WNW 9.7 km/h 20.9 km/h 70% 0 mm
05:34 -2.1 °C -6.8 °C 1032.4 hPa WNW 8 km/h 19.3 km/h 70% 0 mm
05:39 -2.1 °C -6.8 °C 1032.4 hPa WNW 6.4 km/h 17.7 km/h 70% 0 mm
05:44 -2.2 °C -6.9 °C 1032.7 hPa WNW 8 km/h 19.3 km/h 70% 0 mm
05:49 -2.2 °C -6.9 °C 1032.7 hPa WNW 9.7 km/h 19.3 km/h 70% 0 mm
05:54 -2.3 °C -7 °C 1032.7 hPa NW 11.3 km/h 22.5 km/h 70% 0 mm
05:59 -2.4 °C -7.1 °C 1033.1 hPa West 11.3 km/h 25.7 km/h 70% 0 mm
06:04 -2.5 °C -7.2 °C 1033.1 hPa NW 11.3 km/h 16.1 km/h 70% 0 mm
06:09 -2.7 °C -7.4 °C 1033.1 hPa NNW 6.4 km/h 22.5 km/h 70% 0 mm
06:14 -2.8 °C -7.7 °C 1033.4 hPa NW 11.3 km/h 20.9 km/h 69% 0 mm
06:19 -2.9 °C -7.8 °C 1033.7 hPa WNW 8 km/h 19.3 km/h 69% 0 mm
06:24 -3 °C -7.9 °C 1033.7 hPa WNW 9.7 km/h 19.3 km/h 69% 0 mm
06:29 -3.1 °C -7.8 °C 1033.7 hPa WNW 9.7 km/h 17.7 km/h 70% 0 mm
06:34 -3.2 °C -7.9 °C 1033.7 hPa WNW 9.7 km/h 17.7 km/h 70% 0 mm
06:39 -3.3 °C -8 °C 1034.1 hPa West 11.3 km/h 17.7 km/h 70% 0 mm
06:44 -3.3 °C -8 °C 1034.4 hPa WNW 9.7 km/h 17.7 km/h 70% 0 mm
06:49 -3.4 °C -7.9 °C 1034.4 hPa WNW 8 km/h 17.7 km/h 71% 0 mm
06:54 -3.5 °C -8.2 °C 1034.4 hPa WNW 9.7 km/h 20.9 km/h 70% 0 mm
06:59 -3.6 °C -8.1 °C 1034.4 hPa North 9.7 km/h 16.1 km/h 71% 0 mm
07:04 -3.6 °C -8.1 °C 1034.8 hPa WNW 8 km/h 12.9 km/h 71% 0 mm
07:09 -3.6 °C -8.1 °C 1034.8 hPa WNW 6.4 km/h 19.3 km/h 71% 0 mm
07:14 -3.7 °C -8.2 °C 1034.8 hPa SW 16.1 km/h 17.7 km/h 71% 0 mm
07:19 -3.7 °C -8.2 °C 1034.8 hPa NW 4.8 km/h 17.7 km/h 71% 0 mm
07:24 -3.7 °C -8.2 °C 1035.1 hPa West 8 km/h 16.1 km/h 71% 0 mm
07:29 -3.7 °C -8.2 °C 1035.1 hPa WNW 11.3 km/h 22.5 km/h 71% 0 mm
07:34 -3.7 °C -8.2 °C 1035.1 hPa WNW 11.3 km/h 22.5 km/h 71% 0 mm
07:39 -3.8 °C -8.4 °C 1035.1 hPa WNW 8 km/h 19.3 km/h 70% 0 mm
07:44 -3.8 °C -8.6 °C 1035.1 hPa NW 8 km/h 24.1 km/h 69% 0 mm
07:49 -3.8 °C -8.7 °C 1035.4 hPa WNW 3.2 km/h 20.9 km/h 69% 0 mm
07:54 -3.8 °C -8.7 °C 1035.4 hPa WNW 4.8 km/h 16.1 km/h 69% 0 mm
07:59 -3.9 °C -8.7 °C 1035.4 hPa WNW 3.2 km/h 14.5 km/h 69% 0 mm
08:04 -3.9 °C -8.7 °C 1035.4 hPa WNW 6.4 km/h 17.7 km/h 69% 0 mm
08:09 -3.9 °C -8.6 °C 1036.1 hPa WNW 6.4 km/h 17.7 km/h 70% 0 mm
08:14 -3.9 °C -8.8 °C 1036.1 hPa WNW 6.4 km/h 16.1 km/h 69% 0 mm
08:19 -3.9 °C -8.9 °C 1036.5 hPa WNW 6.4 km/h 16.1 km/h 68% 0 mm
08:24 -3.9 °C -8.9 °C 1036.5 hPa NW 4.8 km/h 16.1 km/h 68% 0 mm
08:29 -3.8 °C -8.9 °C 1036.5 hPa NW 8 km/h 16.1 km/h 68% 0 mm
08:34 -3.8 °C -9.2 °C 1036.8 hPa WNW 9.7 km/h 25.7 km/h 66% 0 mm
08:39 -3.7 °C -9.3 °C 1036.8 hPa WNW 12.9 km/h 25.7 km/h 65% 0 mm
08:44 -3.6 °C -9.2 °C 1037.1 hPa West 11.3 km/h 22.5 km/h 65% 0 mm
08:49 -3.4 °C -9.1 °C 1037.1 hPa WNW 9.7 km/h 22.5 km/h 65% 0 mm
08:54 -3.2 °C -8.9 °C 1037.1 hPa West 14.5 km/h 17.7 km/h 65% 0 mm
08:59 -3.1 °C -9.1 °C 1037.5 hPa WNW 4.8 km/h 16.1 km/h 63% 0 mm
09:04 -2.8 °C -8.7 °C 1037.5 hPa NW 6.4 km/h 16.1 km/h 64% 0 mm
09:09 -2.8 °C -8.7 °C 1037.5 hPa WNW 8 km/h 17.7 km/h 64% 0 mm
09:14 -2.9 °C -8.9 °C 1037.5 hPa West 9.7 km/h 22.5 km/h 63% 0 mm
09:19 -3 °C -9.1 °C 1037.8 hPa West 11.3 km/h 22.5 km/h 63% 0 mm
09:24 -3 °C -8.8 °C 1037.8 hPa WSW 11.3 km/h 20.9 km/h 64% 0 mm
09:29 -2.7 °C -8.6 °C 1037.8 hPa WNW 9.7 km/h 20.9 km/h 64% 0 mm
09:34 -2.4 °C -8.7 °C 1038.1 hPa WNW 16.1 km/h 19.3 km/h 62% 0 mm
09:39 -2.4 °C -8.6 °C 1038.1 hPa WNW 11.3 km/h 19.3 km/h 63% 0 mm
09:44 -2.6 °C -8.4 °C 1038.1 hPa WNW 11.3 km/h 19.3 km/h 64% 0 mm
09:49 -2.6 °C -8.2 °C 1038.5 hPa WNW 9.7 km/h 16.1 km/h 65% 0 mm
09:54 -2.7 °C -8.3 °C 1038.5 hPa WNW 9.7 km/h 19.3 km/h 65% 0 mm
09:59 -2.7 °C -8.2 °C 1038.5 hPa WNW 20.9 km/h 27.4 km/h 66% 0 mm
10:04 -3.1 °C -8.5 °C 1038.8 hPa NW 8 km/h 22.5 km/h 66% 0 mm
10:09 -3.2 °C -8.4 °C 1038.8 hPa NW 11.3 km/h 19.3 km/h 67% 0 mm
10:14 -3.3 °C -9 °C 1039.2 hPa NW 9.7 km/h 20.9 km/h 65% 0 mm
10:19 -3.3 °C -8.6 °C 1039.2 hPa NW 9.7 km/h 20.9 km/h 67% 0 mm
10:24 -3.1 °C -8.7 °C 1039.2 hPa WNW 9.7 km/h 24.1 km/h 65% 0 mm
10:29 -2.9 °C -8.8 °C 1039.2 hPa WNW 9.7 km/h 24.1 km/h 64% 0 mm
10:34 -2.7 °C -8.3 °C 1039.5 hPa NW 9.7 km/h 19.3 km/h 65% 0 mm
10:39 -2.4 °C -8.6 °C 1039.2 hPa WNW 12.9 km/h 19.3 km/h 63% 0 mm
10:44 -2.4 °C -8.3 °C 1039.2 hPa NW 9.7 km/h 22.5 km/h 64% 0 mm
10:49 -2.4 °C -8.5 °C 1039.5 hPa NNW 17.7 km/h 22.5 km/h 63% 0 mm
10:54 -2.3 °C -8.4 °C 1039.5 hPa NW 9.7 km/h 17.7 km/h 63% 0 mm
10:59 -2.3 °C -8.4 °C 1039.5 hPa WNW 9.7 km/h 16.1 km/h 63% 0 mm
11:04 -2.4 °C -8.9 °C 1039.5 hPa West 9.7 km/h 17.7 km/h 61% 0 mm
11:09 -2.4 °C -8.9 °C 1039.5 hPa WSW 6.4 km/h 20.9 km/h 61% 0 mm
11:14 -2.3 °C -8.8 °C 1039.5 hPa West 11.3 km/h 22.5 km/h 61% 0 mm
11:19 -2.2 °C -8.9 °C 1039.5 hPa West 11.3 km/h 22.5 km/h 60% 0 mm
11:24 -2 °C -9.4 °C 1039.5 hPa WNW 9.7 km/h 19.3 km/h 57% 0 mm
11:29 -1.9 °C -9.1 °C 1039.5 hPa WNW 8 km/h 17.7 km/h 58% 0 mm
11:34 -1.9 °C -9.3 °C 1039.5 hPa WNW 11.3 km/h 19.3 km/h 57% 0 mm
11:39 -1.8 °C -9.4 °C 1039.5 hPa West 11.3 km/h 19.3 km/h 56% 0 mm
11:44 -1.8 °C -9.2 °C 1039.5 hPa SW 8 km/h 19.3 km/h 57% 0 mm
11:49 -1.7 °C -9.1 °C 1039.2 hPa NW 4.8 km/h 16.1 km/h 57% 0 mm
11:54 -1.5 °C -9.8 °C 1039.5 hPa North 3.2 km/h 17.7 km/h 53% 0 mm
11:59 -1.6 °C -9.1 °C 1039.5 hPa WSW 12.9 km/h 20.9 km/h 57% 0 mm
12:04 -1.4 °C -9.3 °C 1039.5 hPa West 9.7 km/h 19.3 km/h 55% 0 mm
12:09 -1.7 °C -9.8 °C 1039.2 hPa WNW 4.8 km/h 14.5 km/h 54% 0 mm
12:14 -1.8 °C -10.1 °C 1039.2 hPa NNW 8 km/h 16.1 km/h 53% 0 mm
12:19 -1.4 °C -9.8 °C 1039.2 hPa NW 9.7 km/h 17.7 km/h 53% 0 mm
12:24 -1.6 °C -9.7 °C 1039.2 hPa WNW 9.7 km/h 17.7 km/h 54% 0 mm
12:29 -2.1 °C -10.8 °C 1039.2 hPa WNW 9.7 km/h 17.7 km/h 51% 0 mm
12:34 -1.4 °C -9.1 °C 1039.2 hPa NW 8 km/h 16.1 km/h 56% 0 mm
12:39 -1.7 °C -10.5 °C 1039.2 hPa NNW 6.4 km/h 16.1 km/h 51% 0 mm
12:44 -1.4 °C -9.5 °C 1039.2 hPa NNW 6.4 km/h 14.5 km/h 54% 0 mm
12:49 -1.2 °C -9.6 °C 1039.2 hPa NW 8 km/h 14.5 km/h 53% 0 mm
12:54 -1.6 °C -10.2 °C 1039.2 hPa West 4.8 km/h 14.5 km/h 52% 0 mm
12:59 -1.8 °C -9.9 °C 1039.2 hPa West 4.8 km/h 14.5 km/h 54% 0 mm
13:04 -1.3 °C -8.9 °C 1039.2 hPa West 12.9 km/h 14.5 km/h 56% 0 mm
13:09 -1.6 °C -9.7 °C 1039.2 hPa NW 6.4 km/h 14.5 km/h 54% 0 mm
13:14 -1.5 °C -9.8 °C 1039.2 hPa WSW 6.4 km/h 14.5 km/h 53% 0 mm
13:19 -0.9 °C -8.4 °C 1039.2 hPa NW 9.7 km/h 11.3 km/h 57% 0 mm
13:24 -1.1 °C -9.2 °C 1039.2 hPa WNW 6.4 km/h 12.9 km/h 54% 0 mm
13:29 -0.9 °C -9.1 °C 1039.2 hPa WNW 6.4 km/h 12.9 km/h 54% 0 mm
13:34 -1 °C -9.2 °C 1039.2 hPa WNW 6.4 km/h 14.5 km/h 54% 0 mm
13:39 -1.7 °C -9.6 °C 1039.2 hPa WNW 8 km/h 16.1 km/h 55% 0 mm
13:44 -1.8 °C -9.7 °C 1039.2 hPa West 8 km/h 16.1 km/h 55% 0 mm
13:49 -1.2 °C -8.4 °C 1039.2 hPa NW 8 km/h 9.7 km/h 58% 0 mm
13:54 -1 °C -9.2 °C 1039.2 hPa WNW 4.8 km/h 17.7 km/h 54% 0 mm
13:59 -1 °C -9.4 °C 1039.2 hPa WNW 8 km/h 19.3 km/h 53% 0 mm
14:04 -1 °C -9.6 °C 1039.2 hPa WNW 8 km/h 16.1 km/h 52% 0 mm
14:09 -1.2 °C -9.8 °C 1039.2 hPa WSW 6.4 km/h 17.7 km/h 52% 0 mm
14:14 -1.3 °C -9.9 °C 1039.5 hPa West 1.6 km/h 11.3 km/h 52% 0 mm
14:19 -1.5 °C -9.8 °C 1039.2 hPa NNW 4.8 km/h 12.9 km/h 53% 0 mm
14:24 -1.4 °C -10 °C 1039.5 hPa NW 9.7 km/h 11.3 km/h 52% 0 mm
14:29 -1.5 °C -10.6 °C 1039.5 hPa NW 11.3 km/h 14.5 km/h 50% 0 mm
14:34 -1.7 °C -10.2 °C 1039.5 hPa NW 8 km/h 14.5 km/h 52% 0 mm
14:39 -1.6 °C -9.7 °C 1039.5 hPa NW 6.4 km/h 12.9 km/h 54% 0 mm
14:44 -1.6 °C -9.5 °C 1039.5 hPa NW 4.8 km/h 12.9 km/h 55% 0 mm
14:49 -1.6 °C -9.7 °C 1039.8 hPa NNW 4.8 km/h 14.5 km/h 54% 0 mm
14:54 -1.6 °C -9.9 °C 1039.8 hPa NNW 4.8 km/h 14.5 km/h 53% 0 mm
14:59 -1.7 °C -9.6 °C 1039.8 hPa NW 6.4 km/h 12.9 km/h 55% 0 mm
15:04 -1.9 °C -10.1 °C 1039.8 hPa NNW 6.4 km/h 12.9 km/h 54% 0 mm
15:09 -2.1 °C -9.7 °C 1039.8 hPa NW 8 km/h 14.5 km/h 56% 0 mm
15:14 -2.2 °C -9.8 °C 1040.2 hPa NNW 6.4 km/h 12.9 km/h 56% 0 mm
15:19 -2.2 °C -9.8 °C 1040.2 hPa NNW 8 km/h 12.9 km/h 56% 0 mm
15:24 -2.3 °C -9.7 °C 1040.2 hPa NW 9.7 km/h 12.9 km/h 57% 0 mm
15:29 -2.4 °C -10 °C 1040.5 hPa NNW 14.5 km/h 14.5 km/h 56% 0 mm
15:34 -2.5 °C -10.6 °C 1040.5 hPa North 4.8 km/h 19.3 km/h 54% 0 mm
15:39 -2.7 °C -10.5 °C 1040.5 hPa NNW 8 km/h 19.3 km/h 55% 0 mm
15:44 -2.8 °C -10.8 °C 1040.5 hPa NW 6.4 km/h 16.1 km/h 54% 0 mm
15:49 -2.8 °C -11.3 °C 1040.9 hPa NNW 8 km/h 16.1 km/h 52% 0 mm
15:54 -2.8 °C -11.1 °C 1040.9 hPa NW 6.4 km/h 12.9 km/h 53% 0 mm
15:59 -2.9 °C -10.9 °C 1040.9 hPa NW 6.4 km/h 12.9 km/h 54% 0 mm
16:04 -3 °C -11 °C 1040.9 hPa NNW 6.4 km/h 12.9 km/h 54% 0 mm
16:09 -3 °C -10.8 °C 1041.2 hPa NW 4.8 km/h 12.9 km/h 55% 0 mm
16:14 -3.1 °C -10.8 °C 1040.9 hPa NNW 4.8 km/h 11.3 km/h 55% 0 mm
16:19 -3.1 °C -10.7 °C 1041.2 hPa NNW 1.6 km/h 11.3 km/h 56% 0 mm
16:24 -3.2 °C -10.7 °C 1041.2 hPa NNW 3.2 km/h 9.7 km/h 56% 0 mm
16:29 -3.2 °C -10.5 °C 1041.2 hPa WNW 3.2 km/h 11.3 km/h 57% 0 mm
16:34 -3.2 °C -10.8 °C 1041.2 hPa WNW 8 km/h 11.3 km/h 56% 0 mm
16:39 -3.3 °C -10.8 °C 1041.2 hPa West 4.8 km/h 11.3 km/h 56% 0 mm
16:44 -3.3 °C -10.9 °C 1041.2 hPa WNW 6.4 km/h 8 km/h 56% 0 mm
16:49 -3.4 °C -10.9 °C 1041.2 hPa West 6.4 km/h 12.9 km/h 56% 0 mm
16:54 -3.4 °C -10.8 °C 1041.2 hPa NW 9.7 km/h 11.3 km/h 57% 0 mm
16:59 -3.5 °C -10.8 °C 1041.5 hPa West 4.8 km/h 11.3 km/h 57% 0 mm
17:04 -3.5 °C -10.6 °C 1041.5 hPa NW 4.8 km/h 9.7 km/h 58% 0 mm
17:09 -3.6 °C -10.6 °C 1041.5 hPa Calm   8 km/h 58% 0 mm
17:14 -3.6 °C -10.6 °C 1041.5 hPa WNW 3.2 km/h 8 km/h 58% 0 mm
17:19 -3.6 °C -10.5 °C 1041.5 hPa NW 3.2 km/h 8 km/h 59% 0 mm
17:24 -3.7 °C -10.7 °C 1041.5 hPa WNW 6.4 km/h 6.4 km/h 58% 0 mm
17:29 -3.7 °C -10.5 °C 1041.5 hPa West 3.2 km/h 9.7 km/h 59% 0 mm
17:34 -3.7 °C -10.3 °C 1041.9 hPa WNW 1.6 km/h 9.7 km/h 60% 0 mm
17:39 -3.7 °C -10.5 °C 1041.9 hPa NNW 4.8 km/h 12.9 km/h 59% 0 mm
17:44 -3.7 °C -10.5 °C 1041.9 hPa NW 1.6 km/h 8 km/h 59% 0 mm
17:49 -3.7 °C -10.5 °C 1041.9 hPa NW 3.2 km/h 9.7 km/h 59% 0 mm
17:54 -3.7 °C -10.3 °C 1041.9 hPa NW 3.2 km/h 9.7 km/h 60% 0 mm
17:59 -3.7 °C -10.3 °C 1041.9 hPa West 1.6 km/h 12.9 km/h 60% 0 mm
18:04 -3.7 °C -10.3 °C 1041.9 hPa WNW 6.4 km/h 9.7 km/h 60% 0 mm
18:09 -3.6 °C -10.5 °C 1042.2 hPa WNW 1.6 km/h 8 km/h 59% 0 mm
18:14 -3.6 °C -10.4 °C 1042.2 hPa West 3.2 km/h 8 km/h 59% 0 mm
18:19 -3.6 °C -10.2 °C 1042.2 hPa West 4.8 km/h 9.7 km/h 60% 0 mm
18:24 -3.6 °C -10.4 °C 1042.2 hPa West 4.8 km/h 11.3 km/h 59% 0 mm
18:29 -3.5 °C -10.4 °C 1042.2 hPa West 4.8 km/h 11.3 km/h 59% 0 mm
18:34 -3.5 °C -10.4 °C 1042.2 hPa West 4.8 km/h 9.7 km/h 59% 0 mm
18:39 -3.5 °C -10.2 °C 1042.2 hPa West 6.4 km/h 9.7 km/h 60% 0 mm
18:44 -3.4 °C -10.1 °C 1042.2 hPa West 3.2 km/h 9.7 km/h 60% 0 mm
18:49 -3.4 °C -9.9 °C 1042.2 hPa West 4.8 km/h 9.7 km/h 61% 0 mm
18:54 -3.4 °C -10.1 °C 1042.2 hPa WNW 4.8 km/h 9.7 km/h 60% 0 mm
18:59 -3.4 °C -10.1 °C 1042.2 hPa WNW 4.8 km/h 9.7 km/h 60% 0 mm
19:04 -3.4 °C -10.1 °C 1042.2 hPa West 4.8 km/h 8 km/h 60% 0 mm
19:09 -3.4 °C -10.1 °C 1042.2 hPa West 3.2 km/h 8 km/h 60% 0 mm
19:14 -3.4 °C -10.1 °C 1042.2 hPa WNW 4.8 km/h 11.3 km/h 60% 0 mm
19:19 -3.5 °C -9.9 °C 1042.2 hPa WNW 4.8 km/h 9.7 km/h 61% 0 mm
19:24 -3.4 °C -9.9 °C 1042.2 hPa West 4.8 km/h 9.7 km/h 61% 0 mm
19:29 -3.4 °C -9.9 °C 1042.2 hPa West 4.8 km/h 8 km/h 61% 0 mm
19:34 -3.5 °C -9.9 °C 1042.2 hPa West 4.8 km/h 8 km/h 61% 0 mm
19:39 -3.6 °C -10 °C 1042.2 hPa West 4.8 km/h 11.3 km/h 61% 0 mm
19:44 -3.5 °C -9.9 °C 1042.2 hPa WNW 3.2 km/h 6.4 km/h 61% 0 mm
19:49 -3.6 °C -9.8 °C 1042.2 hPa NW 1.6 km/h 6.4 km/h 62% 0 mm
19:54 -3.7 °C -9.7 °C 1042.2 hPa West 3.2 km/h 6.4 km/h 63% 0 mm
19:59 -3.8 °C -9.8 °C 1042.2 hPa WNW 1.6 km/h 8 km/h 63% 0 mm
20:04 -3.8 °C -9.8 °C 1042.2 hPa NW 3.2 km/h 8 km/h 63% 0 mm
20:09 -3.9 °C -9.7 °C 1042.2 hPa NW 3.2 km/h 6.4 km/h 64% 0 mm
20:14 -3.9 °C -9.8 °C 1042.2 hPa NW 1.6 km/h 8 km/h 64% 0 mm
20:19 -3.9 °C -9.6 °C 1042.2 hPa NNW 3.2 km/h 4.8 km/h 65% 0 mm
20:24 -4 °C -9.6 °C 1042.2 hPa NW 3.2 km/h 6.4 km/h 65% 0 mm
20:29 -4 °C -9.6 °C 1042.2 hPa NE 6.4 km/h 6.4 km/h 65% 0 mm
20:34 -3.9 °C -8.1 °C 1042.5 hPa North 4.8 km/h 11.3 km/h 73% 0 mm
20:39 -4.1 °C -7.8 °C 1042.5 hPa NNE 6.4 km/h 11.3 km/h 75% 0 mm
20:44 -4.1 °C -7.7 °C 1042.5 hPa NNE 4.8 km/h 9.7 km/h 76% 0 mm
20:49 -4.2 °C -7.8 °C 1042.5 hPa NE 8 km/h 12.9 km/h 76% 0 mm
20:54 -4.2 °C -7.7 °C 1042.5 hPa North 1.6 km/h 11.3 km/h 77% 0 mm
20:59 -4.3 °C -7.7 °C 1042.5 hPa NE 6.4 km/h 12.9 km/h 77% 0 mm
21:04 -4.3 °C -7.7 °C 1042.2 hPa NE 4.8 km/h 12.9 km/h 77% 0 mm
21:09 -4.3 °C -7.7 °C 1042.2 hPa NE 4.8 km/h 11.3 km/h 77% 0 mm
21:14 -4.3 °C -7.6 °C 1042.5 hPa NNE 3.2 km/h 8 km/h 78% 0 mm
21:19 -4.4 °C -7.7 °C 1042.2 hPa NNE 4.8 km/h 8 km/h 78% 0 mm
21:24 -4.4 °C -7.7 °C 1042.5 hPa North 4.8 km/h 8 km/h 78% 0 mm
21:29 -4.4 °C -7.7 °C 1042.5 hPa NNE 4.8 km/h 11.3 km/h 78% 0 mm
21:34 -4.5 °C -7.6 °C 1042.2 hPa NNE 1.6 km/h 11.3 km/h 79% 0 mm
21:39 -4.5 °C -7.6 °C 1042.5 hPa NNE 4.8 km/h 9.7 km/h 79% 0 mm
21:44 -4.6 °C -7.5 °C 1042.5 hPa NE 4.8 km/h 8 km/h 80% 0 mm
21:49 -4.6 °C -7.7 °C 1042.5 hPa NNE 4.8 km/h 11.3 km/h 79% 0 mm
21:54 -4.7 °C -7.8 °C 1042.2 hPa NE 3.2 km/h 6.4 km/h 79% 0 mm
21:59 -4.7 °C -8 °C 1042.2 hPa NE 6.4 km/h 11.3 km/h 78% 0 mm
22:04 -4.8 °C -8.2 °C 1042.2 hPa NNE 6.4 km/h 11.3 km/h 77% 0 mm
22:09 -4.9 °C -8.3 °C 1042.2 hPa NNE 4.8 km/h 9.7 km/h 77% 0 mm
22:14 -4.9 °C -8.3 °C 1042.2 hPa NNE 6.4 km/h 12.9 km/h 77% 0 mm
22:19 -4.9 °C -8.3 °C 1042.2 hPa NNE 3.2 km/h 9.7 km/h 77% 0 mm
22:24 -5 °C -8.4 °C 1042.2 hPa NNE 6.4 km/h 16.1 km/h 77% 0 mm
22:29 -5 °C -8.4 °C 1042.2 hPa NE 4.8 km/h 16.1 km/h 77% 0 mm
22:34 -5 °C -8.2 °C 1041.9 hPa NE 6.4 km/h 12.9 km/h 78% 0 mm
22:39 -5.1 °C -8.4 °C 1041.9 hPa NE 8 km/h 17.7 km/h 77% 0 mm
22:44 -5.1 °C -8.4 °C 1041.9 hPa NE 6.4 km/h 17.7 km/h 77% 0 mm
22:49 -5.2 °C -8.6 °C 1041.9 hPa NE 6.4 km/h 12.9 km/h 77% 0 mm
22:54 -5.2 °C -8.6 °C 1041.9 hPa NE 6.4 km/h 14.5 km/h 77% 0 mm
22:59 -5.3 °C -8.8 °C 1041.9 hPa ENE 8 km/h 14.5 km/h 76% 0 mm
23:04 -5.3 °C -8.8 °C 1041.5 hPa NE 9.7 km/h 14.5 km/h 76% 0 mm
23:09 -5.3 °C -8.9 °C 1041.5 hPa NNE 8 km/h 12.9 km/h 76% 0 mm
23:14 -5.3 °C -8.9 °C 1041.5 hPa NE 6.4 km/h 14.5 km/h 76% 0 mm
23:19 -5.3 °C -8.7 °C 1041.5 hPa NE 4.8 km/h 11.3 km/h 77% 0 mm
23:24 -5.3 °C -8.7 °C 1041.5 hPa NE 3.2 km/h 14.5 km/h 77% 0 mm
23:29 -5.3 °C -8.8 °C 1041.5 hPa NE 6.4 km/h 16.1 km/h 76% 0 mm
23:34 -5.3 °C -8.8 °C 1041.5 hPa East 4.8 km/h 8 km/h 76% 0 mm
23:39 -5.3 °C -8.8 °C 1041.5 hPa NE 9.7 km/h 14.5 km/h 76% 0 mm
23:44 -5.3 °C -8.7 °C 1041.5 hPa NE 6.4 km/h 14.5 km/h 77% 0 mm
23:49 -5.3 °C -8.7 °C 1041.5 hPa NE 6.4 km/h 14.5 km/h 77% 0 mm
23:54 -5.3 °C -8.7 °C 1041.5 hPa NE 8 km/h 14.5 km/h 77% 0 mm
23:59 -5.4 °C -8.8 °C 1041.5 hPa NE 8 km/h 14.5 km/h 77% 0 mm
Buffalo, New York, USA
Compliments of Weather Underground - 2.5 mb